User: anonymous   Login
Location: Boston
(42.3580°N, 71.0600°W)
Time: 11:59:45
(UTC-05:00)
Language:

Envisat - Orbit

View from above orbital plane
View from above orbital plane
View from above satellite
View from above satellite

Ground track
Ground track

The orbit data is extracted from the following two-line orbital elements,

1 27386U 02009A   19049.57623852 -.00000001  00000-0  13067-4 0  9991
2 27386  98.1609  76.6757 0001178  96.7567  14.6472 14.37941545888939
Epoch (UTC): 18 February 2019 13:49:47
Eccentricity: 0.0001178
inclination: 98.1609°
perigee height: 764 km
apogee height: 766 km
right ascension of ascending node: 76.6757°
argument of perigee: 96.7567°
revolutions per day: 14.37941545
mean anomaly at epoch: 14.6472°
orbit number at epoch: 88893

The dashed part of the orbit path shows where the satellite is in the earth's shadow,  

DLR